Regional Weather Roundup
Issued by NWS

Current Version | Previous Version | Text Only | Print | Product List | Glossary On
Versions: 1 2 3 4 5 6 7 8 9 10 11 12 13 14 15 16 17 18 19 20 21 22 23 24 25 26 27 28 29 30 31 32 33 34 35 36 37 38 39 40 41 42 43 44 45 46 47 48 49 50
000
ASUS43 KOAX 231810
RWRNE

WEATHER ROUNDUP FOR NEBRASKA
NATIONAL WEATHER SERVICE OMAHA NE
100 PM CDT THU MAY 23 2019

NOTES: SATELLITE DATA IS BEING USED TO AUGMENT CLOUD COVER ABOVE
       12000 FEET.
       "FAIR" INDICATES FEW OR NO CLOUDS BELOW 12,000 FEET WITH NO
       SIGNIFICANT WEATHER AND/OR OBSTRUCTIONS TO VISIBILITY.


NEZ001>004-019>022-054>056-231900-
NEBRASKA PANHANDLE

CITY           SKY/WX    TMP DP  RH WIND       PRES   REMARKS
SCOTTSBLUFF    CLOUDY    53  41  63 SE9       30.08F
6HR MIN TEMP:  33; 6HR MAX TEMP:  53;

ALLIANCE       FAIR      53  40  61 SE8G17    30.09F
6HR MIN TEMP:  28; 6HR MAX TEMP:  54;

CHADRON        CLOUDY    53  42  66 NE10      30.09F
6HR MIN TEMP:  32; 6HR MAX TEMP:  53;

GORDON         FAIR      54  40  59 N3        30.10S
6HR MIN TEMP:  32; 6HR MAX TEMP:  54;

KIMBALL        CLOUDY    51  36  55 E10       30.09F
SIDNEY         CLOUDY    49  36  61 SE12      30.13R
6HR MIN TEMP:  32; 6HR MAX TEMP:  51;

$$

NEZ057>060-069>072-079>082-231900-
SOUTHWEST NEBRASKA

CITY           SKY/WX    TMP DP  RH WIND       PRES   REMARKS
NORTH PLATTE   LGT RAIN  52  45  77 S13       30.22R
6HR MIN TEMP:  41; 6HR MAX TEMP:  59; 6HR PCP: TRACE;

IMPERIAL       RAIN      47  42  83 NE13      30.08F
6HR MIN TEMP:  42; 6HR MAX TEMP:  50; 6HR PCP:  0.10;

LEXINGTON      TSTM     N/A N/A N/A S6        30.21R
MCCOOK         LGT RAIN  51  49  92 E9        30.14F
6HR MIN TEMP:  45; 6HR MAX TEMP:  56; 6HR PCP:  0.20;

OGALLALA       CLOUDY    53  41  64 SE13G22   30.19R
$$

NEZ005>010-023>029-035>040-094-231900-
NORTH CENTRAL NEBRASKA

CITY           SKY/WX    TMP DP  RH WIND       PRES   REMARKS
VALENTINE      PTSUNNY   60  41  49 MISG      30.12S
6HR MIN TEMP:  41; 6HR MAX TEMP:  61;

AINSWORTH      FAIR      54  44  67 NE5       30.12F
BROKEN BOW     LGT RAIN  57  43  59 SE7       30.13R
6HR MIN TEMP:  43; 6HR MAX TEMP:  59; 6HR PCP: TRACE;

O`NEILL        FAIR      58  43  56 W3        30.14S
ORD            PTSUNNY   60  45  57 VRB6      30.12F
6HR MIN TEMP:  42; 6HR MAX TEMP:  60;

THEDFORD       FAIR      58  42  55 E3        30.12S
$$

NEZ041-046>049-061>064-073>077-083>087-231900-
SOUTH CENTRAL NEBRASKA

CITY           SKY/WX    TMP DP  RH WIND       PRES   REMARKS
GRAND ISLAND   PTSUNNY   61  44  53 E9        30.12F
6HR MIN TEMP:  45; 6HR MAX TEMP:  62;

AURORA         CLOUDY    61  43  52 E7        30.13S
HASTINGS       FAIR      60  46  59 E9        30.11F
6HR MIN TEMP:  46; 6HR MAX TEMP:  61;

HEBRON         CLOUDY    64  47  52 E8        30.10F
HOLDREGE       TSTM      53  47  79 CALM      30.16R
KEARNEY        LGT RAIN  57  44  62 E12       30.11F
YORK           CLOUDY    63  45  51 E6        30.14S
$$

NEZ011>018-030>034-042>045-231900-
NORTHEAST NEBRASKA

CITY           SKY/WX    TMP DP  RH WIND       PRES   REMARKS
NORFOLK        FAIR      62  44  51 SW8       30.13R
6HR MIN TEMP:  46; 6HR MAX TEMP:  62;

ALBION         FAIR      61  46  57 CALM      30.12F
BLAIR          CLOUDY    64  35  34 CALM      30.13S
COLUMBUS       CLOUDY    60  45  57 CALM      30.14S
FREMONT        CLOUDY    64  44  48 NW3       30.14R
TEKAMAH        PTSUNNY   64  46  52 N5        30.11F
6HR MIN TEMP:  48; 6HR MAX TEMP:  65;

WAYNE          FAIR      61  42  49 CALM      30.12F
$$

NEZ050>053-065>068-078-088>093-231900-
SOUTHEAST NEBRASKA

CITY           SKY/WX    TMP DP  RH WIND       PRES   REMARKS
LINCOLN        FAIR      66  46  48 CALM      30.13S
6HR MIN TEMP:  47; 6HR MAX TEMP:  67;

OMAHA EPPLEY   PTSUNNY   66  44  45 NE7       30.12F
6HR MIN TEMP:  52; 6HR MAX TEMP:  67;

BEATRICE       FAIR      67  49  51 NE5       30.12R
FALLS CITY     FAIR      70  49  47 E5        30.10F
6HR MIN TEMP:  51; 6HR MAX TEMP:  70;

NEBRASKA CITY  FAIR      64  42  46 NE3       30.12R
PLATTSMOUTH    FAIR      64  48  55 CALM      30.13R
$$

NEZ044-045-051>053-067-231900-
OMAHA AREA

CITY           SKY/WX    TMP DP  RH WIND       PRES   REMARKS
OMAHA EPPLEY   PTSUNNY   66  44  45 NE7       30.12F
6HR MIN TEMP:  52; 6HR MAX TEMP:  67;

BLAIR          CLOUDY    64  35  34 CALM      30.13S
FREMONT        CLOUDY    64  44  48 NW3       30.14R
MILLARD        FAIR      65  47  51 W5        30.12S
OFFUTT AFB     MOSUNNY   68  45  42 E3        30.10F
PLATTSMOUTH    FAIR      64  48  55 CALM      30.13R
WAHOO          FAIR      65  45  49 CALM      30.13S
$$



USA.gov is the U.S. government's official web portal to all federal, state and local government web resources and services.